Powrót do katalogu

METEOR 2-20 DEB

AktywnyPO
NORAD 44698·DEBRIS·🇷🇺 Russia

Wystrzelony Sep 28, 1990 z Plesetsk Cosmodrome

Loading…

Następne Przeloty (najbliższe 24 godziny)

TLE

Starzejące sięSource: Space-Track

Epoka: Sep 6, 2026, 21:08 UTC

1 44698U 90086C   26249.88089563  .00000850  00000-0  54443-3 0  9990
2 44698  82.5083  86.1163 0022681 297.2787  62.6073 14.02261910629675

Śledź METEOR 2-20 DEB w czasie rzeczywistym z AllMySat

Download on the App Store